Tracking 29528 objects as of 13-Sep-2024
HD Live streaming from Space Station
objects crossing your sky now

STARLINK-2659

Track STARLINK-2659 now!
10-day predictions
STARLINK-2659 is classified as:


NORAD ID: 48467
Int'l Code: 2021-040AR
Perigee: 553.5 km
Apogee: 555.0 km
Inclination: 53.1 °
Period: 95.6 minutes
Semi major axis: 6925 km
RCS: Unknown
Launch date: May 9, 2021
Source: United States (US)
Launch site: AIR FORCE EASTERN TEST RANGE (AFETR)
Your satellite tracking list
Your tracking list is empty




NASA's NSSDC Master Catalog

Two Line Element Set (TLE):
1 48467U 21040AR  24257.00706435  .00027908  00000-0  18832-2 0  9991
2 48467  53.0542 107.8125 0001111 101.9967 258.1146 15.06436180185972
Source of the keplerian elements: AFSPC